Overview Statistics Trail Chart Weather Telemetry Raw packets
 

This is the latest recevied weather packets stored in our database for station/object KO4LCK. If no packets are shown the sender has not sent any weather packets the latest 10 day(s).

<< 29 30 31 32 33 34 35 >>
Time Temp. Humidity Pressure Rain* Wind** Luminosity Snow
1788450890 36.11° C 51% 1019.3 hPa 0 mm - 645 W/m² -
1788450587 35.56° C 52% 1019.2 hPa 0 mm - 640 W/m² -
1788450282 34.44° C 55% 1019.2 hPa 0 mm - 627 W/m² -
1788449978 34.44° C 55% 1019.3 hPa 0 mm - 618 W/m² -
1788449673 33.89° C 56% 1019.4 hPa 0 mm - 608 W/m² -
1788449369 34.44° C 54% 1019.4 hPa 0 mm - 598 W/m² -
1788449065 33.89° C 56% 1019.3 hPa 0 mm - 589 W/m² -
1788448761 33.33° C 57% 1019.4 hPa 0 mm - 579 W/m² -
1788448455 33.89° C 56% 1019.2 hPa 0 mm - 568 W/m² -
1788448150 33.89° C 57% 1019.1 hPa 0 mm - 549 W/m² -
1788447845 33.89° C 58% 1019.1 hPa 0 mm - 539 W/m² -
1788447540 32.78° C 61% 1019.2 hPa 0 mm - 522 W/m² -
1788447235 32.78° C 61% 1019.2 hPa 0 mm - 511 W/m² -
1788446934 32.78° C 60% 1019.3 hPa 0 mm - 494 W/m² -
1788446630 31.67° C 64% 1019.3 hPa 0 mm - 480 W/m² -
1788446324 31.11° C 64% 1019.4 hPa 0 mm - 466 W/m² -
1788446021 30.56° C 65% 1019.3 hPa 0 mm - 450 W/m² -
1788445716 30.56° C 65% 1019.3 hPa 0 mm - 439 W/m² -
1788445412 30.56° C 65% 1019.3 hPa 0 mm - 421 W/m² -
1788445108 31.11° C 64% 1019.2 hPa 0 mm - 406 W/m² -
1788444804 31.67° C 63% 1019.6 hPa 0 mm - 390 W/m² -
1788444504 31.11° C 66% 1019.4 hPa 0 mm - 371 W/m² -
1788444199 30° C 70% 1019.4 hPa 0 mm - 352 W/m² -
1788443895 30° C 71% 1019.5 hPa 0 mm - 339 W/m² -
1788443590 30.56° C 68% 1019.4 hPa 0 mm - 323 W/m² -

* Rain latest hour (hover to see other rain measurements)
** Current wind speed in m/s (hover to see current wind gust speed)